| time (UTC) | temp C | wind direction | speed KPH | gust KPH | rain 1hr cm | rain 24hr cm | rain mn cm | humidity % | barometer mb |
| 20260506045040 | 22 | 218 | 3.2 | 14.5 | 0.00 | 0.00 | 0.00 | 53 | 1010.4 |
| 20260506044517 | 22 | 160 | 1.6 | 11.3 | 0.00 | 0.00 | 0.00 | 52 | 1010.3 |
| 20260506044011 | 21 | 161 | 3.2 | 12.9 | 0.00 | 0.00 | 0.00 | 52 | 1010.3 |
| 20260506043513 | 21 | 200 | 3.2 | 11.3 | 0.00 | 0.00 | 0.00 | 52 | 1010.3 |
| 20260506043148 | 21 | 145 | 0.0 | 9.7 | 0.00 | 0.00 | 0.00 | 52 | 1010.4 |
| 20260506042623 | 21 | 240 | 1.6 | 9.7 | 0.00 | 0.00 | 0.00 | 52 | 1010.4 |
| 20260506042147 | 21 | 138 | 3.2 | 9.7 | 0.00 | 0.00 | 0.00 | 51 | 1010.3 |
| 20260506041648 | 21 | 181 | 1.6 | 9.7 | 0.00 | 0.00 | 0.00 | 51 | 1010.3 |
| 20260506041147 | 21 | 154 | 1.6 | 8.0 | 0.00 | 0.00 | 0.00 | 51 | 1010.2 |
| 20260506040647 | 21 | 180 | 1.6 | 8.0 | 0.00 | 0.00 | 0.00 | 51 | 1010.1 |
| 20260506040002 | 21 | 288 | 1.6 | 11.3 | 0.00 | 0.00 | 0.00 | 50 | 1010.3 |
| 20260506035508 | 21 | 64 | 0.0 | 8.0 | 0.00 | 0.00 | 0.00 | 51 | 1010.3 |
| 20260506035014 | 21 | 250 | 1.6 | 8.0 | 0.00 | 0.00 | 0.00 | 51 | 1010.3 |
| 20260506034517 | 21 | 192 | 0.0 | 3.2 | 0.00 | 0.00 | 0.00 | 50 | 1010.4 |
| 20260506034017 | 21 | 232 | 1.6 | 9.7 | 0.00 | 0.00 | 0.00 | 49 | 1010.1 |
| 20260506033522 | 21 | 182 | 3.2 | 9.7 | 0.00 | 0.00 | 0.00 | 48 | 1010.2 |
| 20260506033052 | 21 | 212 | 0.0 | 6.4 | 0.00 | 0.00 | 0.00 | 49 | 1010.5 |
| 20260506032554 | 21 | 249 | 0.0 | 6.4 | 0.00 | 0.00 | 0.00 | 48 | 1010.8 |
| 20260506032100 | 21 | 125 | 0.0 | 4.8 | 0.00 | 0.00 | 0.00 | 48 | 1010.8 |
| 20260506031608 | 21 | 226 | 0.0 | 4.8 | 0.00 | 0.00 | 0.00 | 47 | 1010.8 |
| 20260506031110 | 21 | 46 | 1.6 | 4.8 | 0.00 | 0.00 | 0.00 | 46 | 1010.7 |
| 20260506030619 | 21 | 6 | 0.0 | 11.3 | 0.00 | 0.00 | 0.00 | 46 | 1010.8 |
| 20260506030119 | 21 | 191 | 0.0 | 11.3 | 0.00 | 0.00 | 0.00 | 46 | 1010.8 |
| 20260506025506 | 21 | 200 | 1.6 | 6.4 | 0.00 | 0.00 | 0.00 | 46 | 1010.7 |
| 20260506025010 | 21 | 233 | 1.6 | 4.8 | 0.00 | 0.00 | 0.00 | 46 | 1010.9 |
| 20260506024510 | 21 | 192 | 0.0 | 3.2 | 0.00 | 0.00 | 0.00 | 46 | 1010.8 |
| 20260506024013 | 21 | 168 | 0.0 | 4.8 | 0.00 | 0.00 | 0.00 | 46 | 1010.7 |
| 20260506023537 | 21 | 235 | 0.0 | 6.4 | 0.00 | 0.00 | 0.00 | 46 | 1010.6 |
| 20260506023048 | 21 | 216 | 0.0 | 8.0 | 0.00 | 0.00 | 0.00 | 46 | 1010.5 |
| 20260506022539 | 21 | 205 | 1.6 | 9.7 | 0.00 | 0.00 | 0.00 | 45 | 1010.5 |
| 20260506022022 | 21 | 150 | 1.6 | 9.7 | 0.00 | 0.00 | 0.00 | 46 | 1010.5 |
| 20260506021543 | 21 | 208 | 0.0 | 6.4 | 0.00 | 0.00 | 0.00 | 46 | 1010.5 |
| 20260506021052 | 21 | 311 | 1.6 | 6.4 | 0.00 | 0.00 | 0.00 | 47 | 1010.5 |
| 20260506020554 | 21 | 161 | 1.6 | 4.8 | 0.00 | 0.00 | 0.00 | 47 | 1010.3 |
| 20260506020122 | 21 | 212 | 0.0 | 6.4 | 0.00 | 0.00 | 0.00 | 47 | 1010.4 |
| 20260506015603 | 21 | 228 | 1.6 | 6.4 | 0.00 | 0.00 | 0.00 | 46 | 1010.3 |
| 20260506015108 | 21 | 154 | 1.6 | 6.4 | 0.00 | 0.00 | 0.00 | 47 | 1010.3 |
| 20260506014635 | 21 | 53 | 0.0 | 6.4 | 0.00 | 0.00 | 0.00 | 46 | 1010.3 |
| 20260506014138 | 21 | 231 | 0.0 | 4.8 | 0.00 | 0.00 | 0.00 | 48 | 1010.1 |
| 20260506013645 | 21 | 183 | 1.6 | 6.4 | 0.00 | 0.00 | 0.00 | 47 | 1010.1 |
| 20260506013001 | 21 | 148 | 1.6 | 6.4 | 0.00 | 0.00 | 0.00 | 47 | 1010.1 |
| 20260506012506 | 21 | 168 | 1.6 | 6.4 | 0.00 | 0.00 | 0.00 | 48 | 1010.0 |
| 20260506012009 | 21 | 142 | 1.6 | 11.3 | 0.00 | 0.00 | 0.00 | 46 | 1009.9 |
| 20260506011514 | 21 | 136 | 3.2 | 12.9 | 0.00 | 0.00 | 0.00 | 46 | 1009.9 |
| 20260506011018 | 21 | 206 | 0.0 | 12.9 | 0.00 | 0.00 | 0.00 | 47 | 1009.9 |
| 20260506010544 | 21 | 240 | 1.6 | 9.7 | 0.00 | 0.00 | 0.00 | 47 | 1010.0 |
| 20260506010048 | 21 | 186 | 3.2 | 9.7 | 0.00 | 0.00 | 0.00 | 47 | 1010.0 |
| 20260506005554 | 21 | 139 | 3.2 | 9.7 | 0.00 | 0.00 | 0.00 | 48 | 1009.9 |
| 20260506005102 | 20 | 303 | 3.2 | 9.7 | 0.00 | 0.00 | 0.00 | 48 | 1009.8 |
| 20260506004604 | 20 | 84 | 1.6 | 6.4 | 0.00 | 0.00 | 0.00 | 48 | 1009.7 |
| 20260506004104 | 20 | 181 | 1.6 | 6.4 | 0.00 | 0.00 | 0.00 | 49 | 1009.7 |
| 20260506003608 | 21 | 202 | 1.6 | 4.8 | 0.00 | 0.00 | 0.00 | 49 | 1009.8 |
| 20260506003135 | 21 | 144 | 0.0 | 4.8 | 0.00 | 0.00 | 0.00 | 49 | 1009.9 |
| 20260506002617 | 21 | 104 | 0.0 | 4.8 | 0.00 | 0.00 | 0.00 | 48 | 1010.0 |
| 20260506002120 | 21 | 144 | 1.6 | 6.4 | 0.00 | 0.00 | 0.00 | 48 | 1009.9 |
| 20260506001622 | 21 | 242 | 0.0 | 6.4 | 0.00 | 0.00 | 0.00 | 46 | 1010.2 |
| 20260506001002 | 21 | 103 | 0.0 | 4.8 | 0.00 | 0.00 | 0.00 | 44 | 1010.4 |
| 20260506000505 | 22 | 164 | 0.0 | 4.8 | 0.00 | 0.00 | 0.00 | 44 | 1010.4 |
| 20260506000004 | 22 | 226 | 1.6 | 4.8 | 0.00 | 0.00 | 0.00 | 42 | 1010.5 |
| 20260505235511 | 22 | 120 | 0.0 | 4.8 | 0.00 | 0.00 | 0.00 | 44 | 1010.5 |
| 20260505235010 | 22 | 225 | 0.0 | 6.4 | 0.00 | 0.00 | 0.00 | 42 | 1010.3 |
| 20260505234515 | 22 | 219 | 1.6 | 8.0 | 0.00 | 0.00 | 0.00 | 42 | 1010.3 |
| 20260505234042 | 22 | 110 | 1.6 | 9.7 | 0.00 | 0.00 | 0.00 | 40 | 1010.2 |
| 20260505233546 | 22 | 77 | 1.6 | 9.7 | 0.00 | 0.00 | 0.00 | 40 | 1010.2 |
| 20260505233052 | 22 | 136 | 1.6 | 11.3 | 0.00 | 0.00 | 0.00 | 40 | 1010.0 |
| 20260505232553 | 22 | 141 | 3.2 | 11.3 | 0.00 | 0.00 | 0.00 | 39 | 1010.0 |
| 20260505232103 | 23 | 233 | 3.2 | 8.0 | 0.00 | 0.00 | 0.00 | 39 | 1010.0 |
| 20260505231635 | 23 | 127 | 1.6 | 9.7 | 0.00 | 0.00 | 0.00 | 39 | 1009.9 |
| 20260505231115 | 23 | 208 | 1.6 | 11.3 | 0.00 | 0.00 | 0.00 | 39 | 1010.0 |
| 20260505230618 | 23 | 199 | 1.6 | 14.5 | 0.00 | 0.00 | 0.00 | 39 | 1009.9 |
| 20260505230124 | 23 | 219 | 1.6 | 14.5 | 0.00 | 0.00 | 0.00 | 40 | 1010.0 |
| 20260505225502 | 23 | 109 | 3.2 | 14.5 | 0.00 | 0.00 | 0.00 | 40 | 1009.9 |
| 20260505225003 | 23 | 192 | 3.2 | 14.5 | 0.00 | 0.00 | 0.00 | 39 | 1010.0 |
| 20260505224506 | 23 | 217 | 1.6 | 8.0 | 0.00 | 0.00 | 0.00 | 39 | 1010.0 |
| 20260505224036 | 24 | 165 | 3.2 | 9.7 | 0.00 | 0.00 | 0.00 | 39 | 1010.0 |
| 20260505223522 | 24 | 156 | 3.2 | 12.9 | 0.00 | 0.00 | 0.00 | 38 | 1010.0 |
| 20260505223025 | 24 | 98 | 1.6 | 17.7 | 0.00 | 0.00 | 0.00 | 38 | 1010.0 |
| 20260505222549 | 24 | 214 | 4.8 | 16.1 | 0.00 | 0.00 | 0.00 | 38 | 1010.1 |
| 20260505222054 | 23 | 169 | 6.4 | 16.1 | 0.00 | 0.00 | 0.00 | 36 | 1010.0 |
| 20260505221602 | 23 | 188 | 3.2 | 14.5 | 0.00 | 0.00 | 0.00 | 37 | 1010.0 |
| 20260505221102 | 23 | 350 | 6.4 | 17.7 | 0.00 | 0.00 | 0.00 | 37 | 1010.0 |
| 20260505220604 | 23 | 142 | 3.2 | 22.5 | 0.00 | 0.00 | 0.00 | 40 | 1010.0 |
| 20260505220109 | 23 | 300 | 3.2 | 14.5 | 0.00 | 0.00 | 0.00 | 38 | 1010.2 |
| 20260505215635 | 24 | 145 | 4.8 | 17.7 | 0.00 | 0.00 | 0.00 | 38 | 1010.3 |
| 20260505215143 | 24 | 209 | 4.8 | 17.7 | 0.00 | 0.00 | 0.00 | 39 | 1010.4 |
| 20260505214501 | 24 | 230 | 3.2 | 12.9 | 0.00 | 0.00 | 0.00 | 41 | 1010.2 |
| 20260505214006 | 24 | 184 | 4.8 | 12.9 | 0.00 | 0.00 | 0.00 | 40 | 1010.2 |
| 20260505213509 | 25 | 186 | 6.4 | 12.9 | 0.00 | 0.00 | 0.00 | 39 | 1010.0 |
| 20260505213016 | 25 | 327 | 3.2 | 14.5 | 0.00 | 0.00 | 0.00 | 40 | 1010.1 |
| 20260505212517 | 25 | 63 | 1.6 | 8.0 | 0.00 | 0.00 | 0.00 | 41 | 1010.1 |
| 20260505212023 | 25 | 141 | 3.2 | 12.9 | 0.00 | 0.00 | 0.00 | 41 | 1010.1 |
| 20260505211530 | 25 | 220 | 4.8 | 17.7 | 0.00 | 0.00 | 0.00 | 40 | 1010.1 |
| 20260505211049 | 25 | 200 | 3.2 | 17.7 | 0.00 | 0.00 | 0.00 | 40 | 1010.3 |
| 20260505210550 | 25 | 158 | 4.8 | 12.9 | 0.00 | 0.00 | 0.00 | 43 | 1010.4 |
| 20260505210053 | 25 | 160 | 1.6 | 12.9 | 0.00 | 0.00 | 0.00 | 44 | 1010.3 |
| 20260505205600 | 25 | 229 | 4.8 | 16.1 | 0.00 | 0.00 | 0.00 | 42 | 1010.3 |
| 20260505205106 | 25 | 264 | 4.8 | 16.1 | 0.00 | 0.00 | 0.00 | 43 | 1010.4 |
| 20260505204615 | 25 | 308 | 4.8 | 12.9 | 0.00 | 0.00 | 0.00 | 42 | 1010.6 |
| 20260505204122 | 25 | 191 | 3.2 | 12.9 | 0.00 | 0.00 | 0.00 | 42 | 1010.6 |
| 20260505203624 | 25 | 65 | 3.2 | 9.7 | 0.00 | 0.00 | 0.00 | 43 | 1010.7 |
| 20260505203007 | 25 | 137 | 1.6 | 9.7 | 0.00 | 0.00 | 0.00 | 44 | 1010.7 |
| 20260505202506 | 25 | 95 | 3.2 | 20.9 | 0.00 | 0.00 | 0.00 | 40 | 1010.8 |
| 20260505202010 | 26 | 96 | 6.4 | 20.9 | 0.00 | 0.00 | 0.00 | 40 | 1010.7 |
| 20260505201539 | 26 | 184 | 3.2 | 16.1 | 0.00 | 0.00 | 0.00 | 40 | 1010.7 |
| 20260505201013 | 26 | 107 | 3.2 | 12.9 | 0.00 | 0.00 | 0.00 | 40 | 1010.8 |
| 20260505200508 | 26 | 294 | 4.8 | 12.9 | 0.00 | 0.00 | 0.00 | 41 | 1010.9 |
| 20260505200010 | 26 | 227 | 3.2 | 14.5 | 0.00 | 0.00 | 0.00 | 42 | 1011.1 |
| 20260505195506 | 26 | 127 | 3.2 | 16.1 | 0.00 | 0.00 | 0.00 | 41 | 1011.0 |
| 20260505195011 | 26 | 250 | 1.6 | 16.1 | 0.00 | 0.00 | 0.00 | 41 | 1011.0 |
| 20260505194516 | 26 | 78 | 1.6 | 17.7 | 0.00 | 0.00 | 0.00 | 43 | 1011.0 |
| 20260505194021 | 26 | 151 | 4.8 | 17.7 | 0.00 | 0.00 | 0.00 | 40 | 1011.1 |
| 20260505193516 | 26 | 173 | 4.8 | 12.9 | 0.00 | 0.00 | 0.00 | 41 | 1011.3 |
| 20260505193041 | 26 | 217 | 4.8 | 20.9 | 0.00 | 0.00 | 0.00 | 39 | 1011.2 |
| 20260505192544 | 26 | 239 | 4.8 | 20.9 | 0.00 | 0.00 | 0.00 | 40 | 1011.4 |
| 20260505192051 | 26 | 258 | 3.2 | 16.1 | 0.00 | 0.00 | 0.00 | 38 | 1011.4 |
| 20260505191552 | 26 | 159 | 3.2 | 14.5 | 0.00 | 0.00 | 0.00 | 38 | 1011.4 |
| 20260505191058 | 26 | 129 | 3.2 | 14.5 | 0.00 | 0.00 | 0.00 | 38 | 1011.5 |
| 20260505190605 | 26 | 162 | 3.2 | 16.1 | 0.00 | 0.00 | 0.00 | 37 | 1011.4 |
| 20260505190111 | 25 | 119 | 4.8 | 16.1 | 0.00 | 0.00 | 0.00 | 36 | 1011.5 |
| 20260505185605 | 25 | 82 | 3.2 | 11.3 | 0.00 | 0.00 | 0.00 | 39 | 1011.7 |
| 20260505185110 | 25 | 229 | 4.8 | 11.3 | 0.00 | 0.00 | 0.00 | 39 | 1011.8 |
| 20260505184614 | 25 | 186 | 3.2 | 19.3 | 0.00 | 0.00 | 0.00 | 40 | 1012.0 |
| 20260505184121 | 25 | 239 | 4.8 | 14.5 | 0.00 | 0.00 | 0.00 | 39 | 1012.1 |
| 20260505183620 | 25 | 231 | 3.2 | 17.7 | 0.00 | 0.00 | 0.00 | 36 | 1012.3 |
| 20260505183002 | 25 | 207 | 4.8 | 17.7 | 0.00 | 0.00 | 0.00 | 38 | 1012.4 |
| 20260505182507 | 25 | 281 | 3.2 | 12.9 | 0.00 | 0.00 | 0.00 | 38 | 1012.4 |
| 20260505182013 | 25 | 180 | 4.8 | 11.3 | 0.00 | 0.00 | 0.00 | 38 | 1012.6 |
| 20260505181546 | 25 | 91 | 3.2 | 14.5 | 0.00 | 0.00 | 0.00 | 39 | 1012.7 |
| 20260505181038 | 25 | 67 | 4.8 | 14.5 | 0.00 | 0.00 | 0.00 | 37 | 1012.7 |
| 20260505180542 | 25 | 98 | 3.2 | 12.9 | 0.00 | 0.00 | 0.00 | 40 | 1012.7 |
| 20260505175553 | 25 | 233 | 3.2 | 16.1 | 0.00 | 0.00 | 0.00 | 38 | 1012.8 |
| 20260505175055 | 25 | 92 | 4.8 | 16.1 | 0.00 | 0.00 | 0.00 | 38 | 1012.9 |
| 20260505174602 | 25 | 160 | 4.8 | 14.5 | 0.00 | 0.00 | 0.00 | 40 | 1013.1 |
| 20260505174105 | 24 | 231 | 3.2 | 12.9 | 0.00 | 0.00 | 0.00 | 38 | 1013.1 |
| 20260505173615 | 24 | 182 | 1.6 | 11.3 | 0.00 | 0.00 | 0.00 | 40 | 1013.2 |
| 20260505173123 | 25 | 110 | 3.2 | 17.7 | 0.00 | 0.00 | 0.00 | 40 | 1013.2 |
| 20260505172624 | 24 | 122 | 3.2 | 17.7 | 0.00 | 0.00 | 0.00 | 41 | 1013.4 |
| 20260505172008 | 25 | 213 | 3.2 | 20.9 | 0.00 | 0.00 | 0.00 | 39 | 1013.5 |
| 20260505171518 | 24 | 269 | 3.2 | 20.9 | 0.00 | 0.00 | 0.00 | 39 | 1013.8 |
| 20260505171038 | 24 | 124 | 1.6 | 17.7 | 0.00 | 0.00 | 0.00 | 42 | 1013.8 |
| 20260505170541 | 25 | 89 | 3.2 | 16.1 | 0.00 | 0.00 | 0.00 | 40 | 1013.9 |
| 20260505170048 | 25 | 218 | 8.0 | 16.1 | 0.00 | 0.00 | 0.00 | 39 | 1013.9 |
| 20260505165556 | 24 | 135 | 4.8 | 16.1 | 0.00 | 0.00 | 0.00 | 40 | 1013.8 |
| 20260505165058 | 24 | 87 | 6.4 | 16.1 | 0.00 | 0.00 | 0.00 | 44 | 1013.8 |
| 20260505164601 | 24 | 175 | 4.8 | 16.1 | 0.00 | 0.00 | 0.00 | 42 | 1013.8 |
| 20260505164106 | 23 | 196 | 4.8 | 16.1 | 0.00 | 0.00 | 0.00 | 44 | 1013.8 |
| 20260505163608 | 23 | 224 | 3.2 | 11.3 | 0.00 | 0.00 | 0.00 | 47 | 1013.8 |
| 20260505163111 | 23 | 305 | 4.8 | 11.3 | 0.00 | 0.00 | 0.00 | 45 | 1013.8 |
| 20260505162614 | 24 | 217 | 3.2 | 12.9 | 0.00 | 0.00 | 0.00 | 46 | 1014.0 |
| 20260505162144 | 23 | 236 | 3.2 | 12.9 | 0.00 | 0.00 | 0.00 | 47 | 1014.0 |
| 20260505161647 | 23 | 289 | 3.2 | 11.3 | 0.00 | 0.00 | 0.00 | 49 | 1014.0 |
| 20260505161003 | 23 | 330 | 1.6 | 9.7 | 0.00 | 0.00 | 0.00 | 53 | 1014.0 |
| 20260505160516 | 23 | 94 | 3.2 | 14.5 | 0.00 | 0.00 | 0.00 | 53 | 1014.1 |
| 20260505153101 | 23 | 291 | 3.2 | 9.7 | 0.00 | 0.00 | 0.00 | 53 | 1013.9 |
| 20260505152606 | 22 | 209 | 1.6 | 11.3 | 0.00 | 0.00 | 0.00 | 53 | 1013.9 |
| 20260505152111 | 22 | 46 | 3.2 | 11.3 | 0.00 | 0.00 | 0.00 | 51 | 1014.0 |
| 20260505151637 | 22 | 321 | 1.6 | 9.7 | 0.00 | 0.00 | 0.00 | 52 | 1014.0 |
| 20260505151142 | 22 | 123 | 1.6 | 9.7 | 0.00 | 0.00 | 0.00 | 53 | 1014.0 |
| 20260505150503 | 22 | 75 | 3.2 | 9.7 | 0.00 | 0.00 | 0.00 | 53 | 1014.0 |
| 20260505140613 | 20 | 191 | 1.6 | 4.8 | 0.00 | 0.00 | 0.00 | 57 | 1014.0 |
| 20260505140117 | 20 | 250 | 0.0 | 4.8 | 0.00 | 0.00 | 0.00 | 56 | 1014.1 |
| 20260505124605 | 16 | 136 | 0.0 | 0.0 | 0.00 | 0.00 | 0.00 | 70 | 1013.8 |
| 20260505124110 | 15 | 136 | 0.0 | 0.0 | 0.00 | 0.00 | 0.00 | 75 | 1013.7 |
| 20260505123616 | 15 | 136 | 0.0 | 0.0 | 0.00 | 0.00 | 0.00 | 75 | 1013.7 |
| 20260505123117 | 14 | 136 | 0.0 | 0.0 | 0.00 | 0.00 | 0.00 | 77 | 1013.8 |
| 20260505122621 | 13 | 136 | 0.0 | 0.0 | 0.00 | 0.00 | 0.00 | 76 | 1013.7 |
| 20260505122003 | 13 | 136 | 0.0 | 0.0 | 0.00 | 0.00 | 0.00 | 80 | 1013.7 |
| 20260505121507 | 13 | 136 | 0.0 | 0.0 | 0.00 | 0.00 | 0.00 | 81 | 1013.7 |
| 20260505121008 | 12 | 136 | 0.0 | 0.0 | 0.00 | 0.00 | 0.00 | 81 | 1013.6 |
| 20260505120511 | 12 | 136 | 0.0 | 3.2 | 0.00 | 0.00 | 0.00 | 83 | 1013.5 |
| 20260505120016 | 11 | 113 | 0.0 | 3.2 | 0.00 | 0.00 | 0.00 | 83 | 1013.4 |
| 20260505115513 | 11 | 308 | 0.0 | 0.0 | 0.00 | 0.00 | 0.00 | 84 | 1013.5 |
| 20260505115017 | 11 | 308 | 0.0 | 0.0 | 0.00 | 0.00 | 0.00 | 84 | 1013.5 |
| 20260505114545 | 10 | 308 | 0.0 | 0.0 | 0.00 | 0.00 | 0.00 | 87 | 1013.3 |
| 20260505114045 | 10 | 308 | 0.0 | 0.0 | 0.00 | 0.00 | 0.00 | 89 | 1013.3 |
| 20260505113555 | 10 | 308 | 0.0 | 0.0 | 0.00 | 0.00 | 0.00 | 89 | 1013.3 |
| 20260505113055 | 9 | 308 | 0.0 | 0.0 | 0.00 | 0.00 | 0.00 | 90 | 1013.1 |
| 20260505112600 | 9 | 308 | 0.0 | 0.0 | 0.00 | 0.00 | 0.00 | 90 | 1012.9 |
| 20260505112100 | 9 | 308 | 0.0 | 0.0 | 0.00 | 0.00 | 0.00 | 90 | 1012.7 |
| 20260505111606 | 8 | 308 | 0.0 | 0.0 | 0.00 | 0.00 | 0.00 | 92 | 1012.6 |
| 20260505111111 | 8 | 308 | 0.0 | 0.0 | 0.00 | 0.00 | 0.00 | 92 | 1012.6 |
| 20260505110642 | 8 | 308 | 0.0 | 0.0 | 0.00 | 0.00 | 0.00 | 92 | 1012.6 |
| 20260505110119 | 7 | 309 | 0.0 | 0.0 | 0.00 | 0.00 | 0.00 | 93 | 1012.6 |
| 20260505102055 | 7 | 309 | 0.0 | 0.0 | 0.00 | 0.00 | 0.00 | 92 | 1012.5 |
| 20260505101606 | 7 | 309 | 0.0 | 0.0 | 0.00 | 0.00 | 0.00 | 92 | 1012.5 |
| 20260505101103 | 7 | 309 | 0.0 | 0.0 | 0.00 | 0.00 | 0.00 | 92 | 1012.6 |
| 20260505100610 | 7 | 309 | 0.0 | 0.0 | 0.00 | 0.00 | 0.00 | 92 | 1012.6 |
| 20260505100011 | 7 | 309 | 0.0 | 0.0 | 0.00 | 0.00 | 0.00 | 91 | 1012.7 |
| 20260505095515 | 7 | 309 | 0.0 | 0.0 | 0.00 | 0.00 | 0.00 | 91 | 1012.6 |
| 20260505095017 | 7 | 309 | 0.0 | 0.0 | 0.00 | 0.00 | 0.00 | 91 | 1012.6 |
| 20260505094520 | 8 | 309 | 0.0 | 0.0 | 0.00 | 0.00 | 0.00 | 92 | 1012.4 |
| 20260505094044 | 8 | 306 | 0.0 | 0.0 | 0.00 | 0.00 | 0.00 | 92 | 1012.4 |
| 20260505093600 | 8 | 306 | 0.0 | 0.0 | 0.00 | 0.00 | 0.00 | 92 | 1012.4 |
| 20260505093105 | 8 | 306 | 0.0 | 0.0 | 0.00 | 0.00 | 0.00 | 92 | 1012.4 |
| 20260505092610 | 8 | 306 | 0.0 | 0.0 | 0.00 | 0.00 | 0.00 | 92 | 1012.5 |
| 20260505092115 | 8 | 306 | 0.0 | 0.0 | 0.00 | 0.00 | 0.00 | 91 | 1012.5 |
| 20260505091602 | 8 | 306 | 0.0 | 0.0 | 0.00 | 0.00 | 0.00 | 91 | 1012.5 |
| 20260505091119 | 8 | 306 | 0.0 | 0.0 | 0.00 | 0.00 | 0.00 | 91 | 1012.5 |
| 20260505090501 | 8 | 306 | 0.0 | 0.0 | 0.00 | 0.00 | 0.00 | 90 | 1012.5 |
| 20260505090009 | 8 | 306 | 0.0 | 0.0 | 0.00 | 0.00 | 0.00 | 90 | 1012.5 |
| 20260505085535 | 8 | 306 | 0.0 | 0.0 | 0.00 | 0.00 | 0.00 | 90 | 1012.5 |
| 20260505085041 | 8 | 306 | 0.0 | 0.0 | 0.00 | 0.00 | 0.00 | 90 | 1012.6 |
| 20260505084559 | 8 | 306 | 0.0 | 0.0 | 0.00 | 0.00 | 0.00 | 90 | 1012.6 |
| 20260505084027 | 8 | 306 | 0.0 | 0.0 | 0.00 | 0.00 | 0.00 | 90 | 1012.5 |
| 20260505083556 | 8 | 306 | 0.0 | 0.0 | 0.00 | 0.00 | 0.00 | 90 | 1012.6 |
| 20260505083112 | 8 | 306 | 0.0 | 0.0 | 0.00 | 0.00 | 0.00 | 89 | 1012.5 |
| 20260505082607 | 8 | 306 | 0.0 | 0.0 | 0.00 | 0.00 | 0.00 | 89 | 1012.4 |
| 20260505082116 | 8 | 306 | 0.0 | 0.0 | 0.00 | 0.00 | 0.00 | 89 | 1012.4 |
| 20260505081625 | 8 | 306 | 0.0 | 0.0 | 0.00 | 0.00 | 0.00 | 89 | 1012.5 |
| 20260505081126 | 8 | 306 | 0.0 | 0.0 | 0.00 | 0.00 | 0.00 | 89 | 1012.4 |
| 20260505080510 | 8 | 306 | 0.0 | 0.0 | 0.00 | 0.00 | 0.00 | 88 | 1012.4 |
| 20260505080015 | 9 | 306 | 0.0 | 0.0 | 0.00 | 0.00 | 0.00 | 88 | 1012.4 |
| 20260505075541 | 9 | 306 | 0.0 | 0.0 | 0.00 | 0.00 | 0.00 | 87 | 1012.4 |
| 20260505075041 | 9 | 306 | 0.0 | 0.0 | 0.00 | 0.00 | 0.00 | 87 | 1012.4 |
| 20260505074549 | 10 | 306 | 0.0 | 0.0 | 0.00 | 0.00 | 0.00 | 86 | 1012.3 |
| 20260505074056 | 10 | 306 | 0.0 | 0.0 | 0.00 | 0.00 | 0.00 | 85 | 1012.3 |
| 20260505073602 | 10 | 306 | 0.0 | 0.0 | 0.00 | 0.00 | 0.00 | 85 | 1012.3 |
| 20260505073106 | 10 | 306 | 0.0 | 0.0 | 0.00 | 0.00 | 0.00 | 85 | 1012.3 |
| 20260505072612 | 10 | 306 | 0.0 | 0.0 | 0.00 | 0.00 | 0.00 | 85 | 1012.3 |
| 20260505072141 | 10 | 304 | 0.0 | 0.0 | 0.00 | 0.00 | 0.00 | 86 | 1012.4 |
| 20260505071644 | 10 | 304 | 0.0 | 0.0 | 0.00 | 0.00 | 0.00 | 86 | 1012.4 |
| 20260505071004 | 10 | 304 | 0.0 | 0.0 | 0.00 | 0.00 | 0.00 | 85 | 1012.4 |
| 20260505070510 | 10 | 304 | 0.0 | 0.0 | 0.00 | 0.00 | 0.00 | 84 | 1012.4 |
| 20260505070014 | 10 | 304 | 0.0 | 0.0 | 0.00 | 0.00 | 0.00 | 84 | 1012.4 |
| 20260505065518 | 11 | 304 | 0.0 | 0.0 | 0.00 | 0.00 | 0.00 | 85 | 1012.5 |
| 20260505065023 | 11 | 304 | 0.0 | 0.0 | 0.00 | 0.00 | 0.00 | 84 | 1012.5 |
| 20260505064625 | 11 | 304 | 0.0 | 0.0 | 0.00 | 0.00 | 0.00 | 84 | 1012.5 |
| 20260505064053 | 11 | 304 | 0.0 | 0.0 | 0.00 | 0.00 | 0.00 | 84 | 1012.5 |
| 20260505063558 | 11 | 304 | 0.0 | 0.0 | 0.00 | 0.00 | 0.00 | 83 | 1012.5 |
| 20260505063107 | 11 | 304 | 0.0 | 0.0 | 0.00 | 0.00 | 0.00 | 83 | 1012.5 |
| 20260505062603 | 11 | 304 | 0.0 | 0.0 | 0.00 | 0.00 | 0.00 | 84 | 1012.5 |
| 20260505062107 | 11 | 304 | 0.0 | 0.0 | 0.00 | 0.00 | 0.00 | 83 | 1012.5 |
| 20260505061612 | 11 | 319 | 0.0 | 0.0 | 0.00 | 0.00 | 0.00 | 83 | 1012.5 |
| 20260505061120 | 11 | 321 | 0.0 | 1.6 | 0.00 | 0.00 | 0.00 | 83 | 1012.5 |
| 20260505060619 | 11 | 321 | 0.0 | 1.6 | 0.00 | 0.00 | 0.00 | 83 | 1012.5 |
| 20260505060147 | 11 | 316 | 0.0 | 3.2 | 0.00 | 0.00 | 0.00 | 83 | 1012.5 |
| 20260505055643 | 11 | 339 | 0.0 | 3.2 | 0.00 | 0.00 | 0.00 | 84 | 1012.5 |
| 20260505055120 | 11 | 137 | 0.0 | 0.0 | 0.00 | 0.00 | 0.00 | 84 | 1012.4 |
| 20260505054510 | 11 | 137 | 0.0 | 0.0 | 0.00 | 0.00 | 0.00 | 83 | 1012.4 |
| 20260505054011 | 11 | 137 | 0.0 | 0.0 | 0.00 | 0.00 | 0.00 | 84 | 1012.4 |
| 20260505053539 | 11 | 137 | 0.0 | 0.0 | 0.00 | 0.00 | 0.00 | 84 | 1012.4 |
| 20260505053046 | 11 | 137 | 0.0 | 0.0 | 0.00 | 0.00 | 0.00 | 83 | 1012.4 |
| 20260505052551 | 11 | 137 | 0.0 | 0.0 | 0.00 | 0.00 | 0.00 | 82 | 1012.4 |
| 20260505052055 | 11 | 137 | 0.0 | 0.0 | 0.00 | 0.00 | 0.00 | 83 | 1012.3 |
| 20260505051602 | 11 | 137 | 0.0 | 0.0 | 0.00 | 0.00 | 0.00 | 82 | 1012.3 |
| 20260505051108 | 11 | 137 | 0.0 | 0.0 | 0.00 | 0.00 | 0.00 | 82 | 1012.3 |
| 20260505050612 | 11 | 137 | 0.0 | 0.0 | 0.00 | 0.00 | 0.00 | 82 | 1012.3 |
| 20260505050138 | 11 | 137 | 0.0 | 0.0 | 0.00 | 0.00 | 0.00 | 82 | 1012.3 |